TimeCST,TemperatureF,Dew PointF,Humidity,Sea Level PressureIn,VisibilityMPH,Wind Direction,Wind SpeedMPH,Gust SpeedMPH,PrecipitationIn,Events,Conditions,WindDirDegrees,DateUTC
12:56 AM,42.1,28.9,60,30.20,10.0,North,6.9,-,N/A,,Clear,350,2013-01-22 06:56:00
1:56 AM,39.9,27.0,60,30.22,10.0,North,6.9,-,N/A,,Clear,350,2013-01-22 07:56:00
2:56 AM,37.9,26.1,62,30.22,10.0,North,4.6,-,N/A,,Clear,350,2013-01-22 08:56:00
3:56 AM,36.0,25.0,64,30.24,10.0,North,5.8,-,N/A,,Clear,350,2013-01-22 09:56:00
4:56 AM,35.1,25.0,67,30.26,10.0,North,5.8,-,N/A,,Clear,360,2013-01-22 10:56:00
5:56 AM,35.1,23.0,61,30.29,10.0,North,3.5,-,N/A,,Clear,350,2013-01-22 11:56:00
6:56 AM,34.0,23.0,64,30.31,10.0,North,5.8,-,N/A,,Clear,350,2013-01-22 12:56:00
7:56 AM,36.0,21.9,57,30.33,10.0,North,8.1,-,N/A,,Clear,360,2013-01-22 13:56:00
8:56 AM,41.0,17.1,38,30.35,10.0,North,10.4,-,N/A,,Clear,10,2013-01-22 14:56:00
9:56 AM,45.0,18.0,34,30.37,10.0,NNE,9.2,-,N/A,,Clear,20,2013-01-22 15:56:00
10:56 AM,48.0,19.0,32,30.36,10.0,North,5.8,-,N/A,,Clear,360,2013-01-22 16:56:00
11:56 AM,51.1,19.0,28,30.33,10.0,NNE,10.4,-,N/A,,Clear,20,2013-01-22 17:56:00
12:56 PM,52.0,19.0,27,30.31,10.0,NNE,6.9,-,N/A,,Clear,20,2013-01-22 18:56:00
1:56 PM,53.1,19.0,26,30.30,10.0,NW,9.2,-,N/A,,Clear,320,2013-01-22 19:56:00
2:56 PM,54.0,21.0,28,30.29,10.0,North,5.8,-,N/A,,Clear,10,2013-01-22 20:56:00
3:56 PM,54.0,21.0,28,30.30,10.0,NNW,6.9,-,N/A,,Clear,330,2013-01-22 21:56:00
4:56 PM,52.0,23.0,32,30.30,10.0,Calm,Calm,-,N/A,,Clear,0,2013-01-22 22:56:00
5:56 PM,46.0,27.0,47,30.31,10.0,Calm,Calm,-,N/A,,Clear,0,2013-01-22 23:56:00
6:56 PM,41.0,28.9,62,30.32,10.0,Calm,Calm,-,N/A,,Clear,0,2013-01-23 00:56:00
7:56 PM,37.9,30.9,76,30.33,10.0,NNW,4.6,-,N/A,,Clear,340,2013-01-23 01:56:00
8:56 PM,37.0,30.0,76,30.34,10.0,Calm,Calm,-,N/A,,Clear,0,2013-01-23 02:56:00
9:56 PM,36.0,30.0,79,30.35,10.0,Calm,Calm,-,N/A,,Clear,0,2013-01-23 03:56:00
10:45 PM,-9999,-9999,N/A,-9999,-9999.0,North,-9999.0,-,N/A,Hail,Hail,0,2013-01-23 04:45:00
10:56 PM,33.1,30.0,89,30.35,10.0,Calm,Calm,-,N/A,,Clear,0,2013-01-23 04:56:00
11:56 PM,33.1,28.9,85,30.33,10.0,Calm,Calm,-,N/A,,Clear,0,2013-01-23 05:56:00